Temp
84 95 100 96 86 88 79 81 85 83 83 88 89 87 84 84 79 71 88 91 95 94 90 88 80 80 80 80 80 79 79 79 79 79 79 79 79 79 79 79 79 79 79 79 79 79 79 79 79
98 95 97 97 85 80 78 86 82 86 86 90 88 88 85 79 84 81 84 92 95 93 91 89 79 80 80 80 80 79 79 79 79 79 79 79 79 79 79 79 79 79 79 79 79 79 79 80 80
96 97 94 92 91 79 79 85 87 86 88 87 85 89 87 79 85 87 92 93 94 92 91 86 80 80 80 79 79 79 79 79 79 78 78 78 78 78 78 79 79 79 79 79 79 79 79 80 80
98 98 96 86 82 85 85 87 88 86 87 88 89 81 86 90 86 90 93 94 92 92 94 82 79 80 79 79 79 79 79 79 78 78 78 78 78 78 78 79 79 79 79 79 78 79 79 79 79
99 97 88 86 83 87 89 87 89 84 84 85 86 80 80 87 91 90 92 94 93 95 93 89 79 80 79 79 79 79 78 78 78 78 78 78 78 78 79 79 79 79 79 79 78 78 78 79 79
93 95 84 84 82 84 89 91 90 88 87 84 85 83 79 86 86 84 94 96 97 95 95 89 80 79 79 79 79 78 78 78 78 78 78 78 78 78 78 79 79 79 79 79 78 78 78 77 77
91 90 86 84 83 85 88 93 90 87 86 84 89 80 80 85 88 92 95 97 97 97 95 93 91 84 79 78 78 78 78 78 78 78 78 78 78 78 78 78 78 78 78 78 78 78 78 76 77
95 93 84 87 84 83 88 90 91 89 81 90 92 80 79 86 91 94 95 96 97 96 97 96 94 93 90 87 78 78 78 78 77 78 78 77 78 78 78 78 77 78 78 78 78 77 77 76 76
94 88 85 84 85 87 92 90 90 91 88 88 87 90 91 90 92 92 92 93 94 94 95 97 96 94 95 93 85 79 78 78 78 79 77 78 91 89 87 77 77 78 78 77 77 77 77 76 76
92 91 84 90 91 90 93 92 90 88 87 86 84 89 90 90 90 90 90 89 91 91 93 95 92 94 93 92 89 90 88 89 88 88 86 91 88 88 88 81 77 78 78 77 76 76 78 79 92
91 88 89 90 92 92 92 90 92 88 87 89 84 85 88 88 88 89 91 92 91 93 92 94 90 88 92 93 91 91 90 88 88 86 87 87 89 89 92 90 88 86 81 88 84 85 92 87 90
87 89 91 92 91 91 90 94 88 89 87 92 91 90 89 87 88 89 89 89 91 90 90 91 91 86 89 93 91 91 91 89 90 89 86 87 88 87 88 91 89 87 91 86 87 77 83 86 87
88 89 91 92 91 92 93 90 90 90 90 93 91 90 89 89 89 91 92 91 91 90 89 88 88 85 82 86 90 90 90 89 90 89 88 90 89 86 86 87 88 89 89 88 83 79 86 84 86
89 89 91 92 92 91 90 89 89 87 92 90 88 88 89 88 90 90 91 91 90 91 89 90 88 86 82 86 86 87 88 89 88 89 90 86 88 85 88 86 87 87 87 87 84 79 82 86 86
89 86 89 89 91 89 91 86 87 88 91 88 88 88 88 87 91 90 91 91 91 91 91 87 87 87 82 84 85 88 88 90 89 89 84 86 84 83 82 85 86 85 84 83 83 75 85 86 88
87 88 81 88 89 88 87 82 88 88 90 87 86 85 86 87 90 91 92 91 92 91 89 88 90 88 84 85 86 88 88 86 88 88 88 84 83 83 82 83 84 85 84 84 81 75 83 84 84
83 78 82 82 90 88 87 84 84 88 89 88 85 84 86 85 87 88 90 91 91 90 89 87 87 88 85 84 85 84 81 80 85 87 87 83 84 84 83 78 84 82 84 84 79 81 82 81 82
75 78 83 81 86 88 86 85 85 86 87 88 88 86 86 84 85 88 89 90 90 90 89 87 87 86 85 84 81 85 83 82 84 86 86 83 85 84 81 75 82 82 84 83 82 80 82 82 82
84 83 81 83 85 85 84 84 85 86 86 86 88 89 88 86 89 87 88 90 89 89 87 85 84 83 83 82 83 81 83 83 82 85 83 83 83 78 71 78 81 81 81 80 79 80 77 80 81
81 80 80 82 84 84 82 82 84 85 86 87 88 89 89 89 88 87 88 88 88 86 85 84 83 82 81 84 83 84 84 85 85 84 77 78 73 72 75 80 81 79 82 77 77 77 79 80 81
80 81 80 81 82 84 82 80 81 84 83 85 86 88 88 87 87 88 88 87 88 86 85 84 83 82 82 84 83 81 82 83 81 81 81 81 76 75 79 79 79 78 78 80 76 77 76 78 80
77 85 84 82 79 74 82 73 80 84 81 82 87 88 91 90 89 88 88 88 87 87 86 84 83 81 82 82 83 80 83 82 85 81 82 81 77 79 80 79 78 77 80 78 78 79 78 76 77
79 86 83 82 80 78 76 74 79 81 79 82 87 89 90 91 90 90 91 90 89 87 85 83 82 81 82 82 83 82 81 83 77 76 79 78 79 78 80 79 78 76 78 77 77 76 74 79 77
85 82 80 82 80 68 76 74 78 79 80 83 87 90 91 92 91 91 90 89 89 89 87 85 82 81 82 82 81 80 80 80 78 79 81 82 82 80 77 79 77 77 77 76 76 75 74 74 77
85 78 68 65 66 67 76 73 78 83 84 84 88 90 92 92 93 91 90 90 89 87 87 86 84 81 82 82 81 81 80 79 78 79 83 81 82 80 78 76 75 77 75 76 76 74 74 74 74
82 79 73 57 62 70 74 68 78 84 86 87 91 92 93 91 93 92 92 92 90 88 87 87 85 83 83 82 81 82 81 82 82 82 83 82 83 84 80 77 76 75 76 76 75 76 76 75 74
80 76 82 71 73 68 77 76 81 85 85 88 88 89 89 91 92 93 93 93 94 92 88 88 86 85 82 83 82 80 80 79 82 81 80 83 81 82 80 79 77 77 75 74 73 74 75 74 71
84 87 72 75 60 58 69 70 79 78 82 86 87 88 90 92 94 94 93 93 92 91 93 89 87 85 84 84 83 81 77 77 79 81 79 80 80 79 79 78 78 76 75 75 72 73 75 71 73
78 77 77 77 72 65 63 69 81 80 83 84 88 91 92 93 94 94 94 93 93 93 92 87 86 84 80 80 75 70 67 66 67 73 77 79 79 77 77 77 77 75 74 72 70 70 73 73 71
85 81 79 70 64 71 70 71 84 82 84 84 86 89 91 89 93 95 97 96 94 92 92 87 85 75 74 72 66 66 66 65 67 71 76 77 78 79 77 76 76 75 75 73 70 66 67 68 70
MSLP
1011.07 1010.33 1009.55 1008.35 1006.25 1004.44 1004.40 1004.87 1005.79 1005.62 1006.28 1007.41 1007.64 1007.64 1008.25 1009.19 1009.66 1011.26 1012.93 1013.23 1013.35 1014.13 1015.48 1016.38 1017.07 1017.33 1017.48 1017.63 1017.81 1017.95 1018.07 1018.12 1018.06 1018.01 1018.04 1018.08 1018.10 1018.09 1018.09 1017.93 1017.96 1017.92 1017.85 1017.76 1017.59 1017.50 1017.39 1017.31 1017.21
1009.96 1009.81 1008.84 1006.34 1004.11 1002.79 1004.34 1005.03 1005.30 1006.28 1007.29 1007.69 1008.06 1008.16 1008.49 1009.79 1011.15 1012.62 1013.38 1013.45 1013.65 1014.64 1015.52 1016.29 1017.35 1017.52 1017.73 1018.00 1018.15 1018.28 1018.28 1018.30 1018.28 1018.37 1018.49 1018.48 1018.48 1018.42 1018.36 1018.28 1018.30 1018.09 1018.07 1017.96 1017.74 1017.55 1017.36 1017.13 1017.23
1009.91 1009.39 1006.94 1004.78 1003.73 1003.18 1004.06 1005.15 1005.69 1006.99 1007.55 1007.75 1008.09 1008.66 1009.10 1010.84 1011.85 1012.21 1013.15 1013.67 1014.12 1014.89 1015.61 1016.72 1017.60 1017.68 1017.93 1018.24 1018.49 1018.72 1018.69 1018.74 1018.62 1018.70 1018.85 1018.80 1018.82 1018.77 1018.74 1018.60 1018.54 1018.36 1018.31 1018.16 1017.95 1017.74 1017.62 1017.44 1017.46
1009.01 1007.88 1006.57 1004.29 1003.44 1004.33 1004.83 1005.43 1006.28 1006.95 1007.77 1008.13 1008.39 1009.34 1011.01 1011.78 1012.17 1012.72 1013.57 1013.92 1014.63 1015.21 1015.49 1017.27 1017.70 1017.86 1018.09 1018.45 1018.64 1018.84 1018.90 1018.99 1019.02 1019.11 1019.12 1019.06 1019.09 1019.05 1019.00 1018.86 1018.70 1018.60 1018.52 1018.37 1018.27 1018.09 1017.90 1017.85 1017.94
1008.67 1006.62 1004.47 1003.72 1003.75 1004.62 1005.36 1006.10 1006.31 1006.95 1007.81 1008.46 1008.87 1009.79 1011.27 1012.65 1013.11 1013.80 1013.97 1014.18 1014.47 1014.88 1015.83 1016.98 1017.71 1017.87 1018.22 1018.51 1018.70 1018.88 1019.02 1019.09 1019.15 1019.23 1019.19 1019.20 1019.19 1019.20 1019.18 1019.07 1018.98 1018.79 1018.58 1018.50 1018.56 1018.46 1018.41 1018.20 1018.25
1006.98 1005.83 1003.73 1002.90 1003.74 1005.03 1005.42 1005.91 1006.38 1006.92 1007.76 1008.80 1009.13 1010.11 1012.06 1013.33 1013.71 1014.49 1013.90 1014.05 1014.33 1014.89 1015.44 1016.94 1017.73 1018.00 1018.29 1018.57 1018.74 1018.87 1019.09 1019.20 1019.14 1019.22 1019.30 1019.29 1019.36 1019.45 1019.41 1019.27 1019.06 1018.99 1018.74 1018.47 1018.66 1018.78 1018.88 1018.80 1018.70
1005.86 1004.50 1003.48 1003.31 1003.83 1004.44 1005.26 1006.05 1006.09 1006.96 1007.76 1008.70 1009.42 1010.03 1012.46 1012.97 1013.91 1013.99 1013.96 1014.18 1014.50 1014.91 1015.56 1016.42 1017.03 1017.99 1018.46 1018.73 1018.97 1019.24 1019.32 1019.49 1019.56 1019.44 1019.55 1019.57 1019.63 1019.68 1019.58 1019.47 1019.33 1019.22 1019.15 1018.96 1018.88 1018.94 1019.07 1019.14 1019.10
1006.30 1004.48 1003.67 1003.44 1003.18 1004.33 1005.67 1006.03 1006.76 1007.06 1008.55 1009.45 1009.32 1009.87 1011.33 1012.54 1013.50 1013.82 1014.12 1014.37 1014.62 1015.02 1015.36 1015.80 1016.43 1016.96 1017.51 1018.34 1019.14 1019.32 1019.41 1019.53 1019.70 1019.84 1019.89 1019.87 1019.90 1019.82 1019.64 1019.43 1019.62 1019.46 1019.54 1019.45 1019.39 1019.25 1019.31 1019.38 1019.45
1006.67 1004.18 1003.12 1003.57 1003.48 1004.24 1005.49 1005.63 1007.05 1007.88 1008.42 1009.13 1009.94 1009.84 1011.09 1012.76 1013.36 1013.63 1013.93 1014.36 1014.76 1015.12 1015.40 1015.65 1016.06 1016.74 1016.79 1017.51 1018.85 1019.40 1019.59 1019.82 1019.98 1020.06 1020.08 1019.96 1018.99 1019.16 1019.18 1019.98 1019.93 1019.73 1019.77 1019.71 1019.81 1019.61 1019.42 1019.52 1019.49
1005.38 1003.51 1003.86 1004.48 1004.49 1004.12 1004.97 1005.33 1006.55 1007.22 1008.12 1009.06 1010.12 1010.86 1011.97 1012.88 1013.13 1013.18 1013.55 1014.00 1014.54 1015.00 1015.50 1015.77 1016.44 1016.58 1016.97 1017.42 1018.31 1018.41 1018.89 1018.91 1019.05 1019.12 1019.56 1018.94 1019.33 1019.28 1019.25 1019.97 1020.17 1019.94 1019.97 1019.97 1019.99 1019.91 1019.52 1019.08 1018.11
1005.21 1004.01 1004.79 1004.81 1005.09 1005.13 1005.01 1005.67 1006.46 1006.77 1007.07 1008.31 1009.55 1010.84 1011.95 1012.66 1013.12 1013.15 1013.43 1013.86 1014.38 1014.91 1015.48 1015.82 1016.62 1017.27 1016.94 1017.12 1017.71 1018.00 1018.29 1018.65 1019.09 1019.34 1019.41 1019.50 1019.35 1019.33 1018.98 1019.10 1019.33 1019.47 1019.62 1018.98 1019.43 1019.37 1018.60 1018.85 1018.48
1005.10 1005.21 1005.22 1005.11 1005.50 1005.34 1005.22 1005.53 1006.48 1007.02 1008.05 1008.71 1009.51 1010.66 1011.61 1012.30 1012.88 1013.24 1013.59 1014.10 1014.50 1015.09 1015.67 1016.17 1016.53 1017.49 1017.17 1017.08 1017.66 1017.85 1018.22 1018.70 1018.67 1018.99 1019.41 1019.36 1019.08 1019.35 1019.26 1018.87 1019.26 1019.33 1018.94 1019.13 1019.13 1019.86 1019.64 1019.47 1019.21
1005.04 1005.29 1005.42 1005.55 1005.71 1005.57 1005.79 1005.87 1006.27 1007.23 1008.47 1009.16 1009.98 1010.79 1011.42 1012.02 1012.57 1013.12 1013.56 1014.19 1014.56 1014.92 1015.57 1016.22 1016.56 1017.35 1018.00 1017.75 1017.54 1017.86 1018.03 1018.55 1018.50 1018.87 1019.12 1019.12 1019.05 1019.32 1019.23 1019.25 1019.11 1019.06 1019.25 1019.29 1019.81 1020.23 1019.55 1019.71 1019.52
1005.77 1005.60 1005.44 1005.67 1005.61 1005.88 1005.76 1006.24 1006.94 1008.17 1008.63 1009.27 1010.19 1010.75 1011.39 1011.93 1012.37 1012.83 1013.23 1013.59 1014.32 1014.66 1015.40 1015.88 1016.47 1016.99 1017.97 1017.46 1017.77 1017.96 1018.23 1018.24 1018.57 1018.62 1018.89 1019.28 1019.16 1019.38 1019.13 1019.27 1019.04 1019.06 1019.32 1019.42 1019.86 1020.16 1019.84 1019.44 1019.45
1005.98 1005.49 1005.60 1005.71 1005.86 1005.92 1006.07 1006.10 1006.48 1008.16 1008.48 1009.26 1009.95 1010.82 1011.50 1012.03 1012.24 1012.55 1012.90 1013.34 1013.77 1014.24 1014.86 1015.72 1016.26 1016.76 1017.61 1017.43 1017.71 1017.61 1017.69 1017.78 1017.91 1018.18 1018.91 1019.10 1019.42 1019.53 1019.52 1019.03 1018.96 1019.26 1019.62 1019.80 1019.98 1020.69 1019.71 1019.52 1019.45
1005.49 1005.18 1004.74 1005.46 1005.84 1006.30 1006.41 1005.14 1006.56 1007.92 1008.23 1008.95 1009.89 1010.82 1011.45 1011.90 1012.05 1012.37 1012.71 1013.07 1013.44 1013.88 1014.55 1015.47 1015.97 1016.47 1017.01 1016.92 1017.27 1017.13 1017.31 1017.63 1017.56 1017.88 1018.34 1018.97 1019.21 1019.43 1019.37 1019.17 1019.00 1019.24 1019.50 1019.52 1019.88 1020.51 1019.59 1019.55 1019.63
1005.27 1004.22 1004.06 1005.24 1005.74 1005.66 1005.89 1005.08 1007.04 1007.77 1007.95 1008.54 1009.69 1010.72 1011.19 1011.77 1012.05 1012.36 1012.67 1012.89 1013.18 1013.78 1014.40 1015.19 1015.79 1016.01 1016.54 1017.04 1017.49 1017.91 1018.45 1018.30 1018.01 1017.98 1018.15 1018.84 1019.03 1019.16 1019.26 1019.66 1019.03 1019.54 1019.10 1019.23 1019.83 1019.76 1019.52 1019.59 1019.73
1004.11 1003.84 1004.05 1004.46 1005.39 1005.49 1005.40 1005.43 1006.80 1007.64 1007.89 1008.16 1008.88 1009.99 1010.51 1011.36 1011.90 1012.26 1012.64 1012.96 1013.22 1013.44 1014.10 1014.77 1015.43 1015.78 1016.47 1016.96 1017.67 1017.39 1017.74 1018.22 1018.09 1017.98 1018.17 1018.76 1018.71 1019.01 1019.53 1019.81 1019.20 1019.34 1018.90 1019.14 1019.47 1019.48 1019.54 1019.49 1019.59
1003.90 1003.61 1003.91 1004.67 1005.55 1005.17 1005.18 1005.58 1006.39 1007.27 1007.77 1008.01 1008.46 1008.97 1009.64 1010.46 1011.29 1012.23 1012.49 1012.74 1013.16 1013.50 1013.87 1014.48 1014.96 1015.54 1016.23 1016.85 1016.83 1017.26 1017.03 1017.48 1017.82 1017.75 1018.31 1018.59 1018.71 1019.26 1019.91 1019.48 1019.16 1019.16 1019.02 1019.24 1019.57 1019.60 1019.68 1019.52 1019.71
1004.61 1003.94 1003.93 1005.17 1005.55 1005.59 1005.57 1005.47 1006.39 1007.00 1007.20 1007.59 1007.91 1008.24 1008.83 1009.46 1010.45 1011.46 1012.04 1012.61 1012.91 1013.35 1013.86 1014.29 1014.75 1015.50 1016.11 1016.35 1016.55 1016.74 1016.90 1017.04 1017.05 1017.46 1018.43 1018.77 1019.26 1019.61 1019.62 1019.05 1018.86 1019.11 1018.83 1019.39 1019.51 1019.60 1019.06 1019.26 1019.56
1004.38 1003.69 1003.74 1004.10 1005.44 1005.65 1005.50 1005.28 1005.95 1006.77 1007.49 1007.80 1008.15 1008.22 1008.56 1009.05 1009.73 1010.13 1011.10 1011.93 1012.58 1013.12 1013.69 1014.06 1014.68 1015.31 1015.78 1016.00 1016.62 1017.03 1017.33 1017.36 1017.52 1017.81 1018.05 1018.17 1018.90 1019.10 1018.89 1018.88 1018.84 1019.08 1019.22 1018.77 1019.35 1019.35 1019.16 1018.61 1019.03
1003.56 1003.95 1003.95 1004.15 1004.76 1004.35 1005.44 1003.85 1004.83 1005.72 1006.80 1007.35 1007.29 1007.53 1007.68 1008.48 1009.13 1009.75 1010.52 1011.24 1011.97 1012.59 1013.20 1013.87 1014.51 1015.21 1015.79 1016.30 1016.32 1016.64 1016.49 1016.52 1016.88 1017.42 1017.36 1017.76 1018.44 1018.23 1018.26 1018.46 1018.58 1018.87 1018.48 1018.71 1019.08 1019.16 1019.07 1019.22 1018.53
1003.61 1004.13 1004.23 1004.59 1004.40 1004.58 1005.20 1004.92 1004.28 1005.54 1005.98 1006.41 1006.76 1007.03 1007.34 1008.13 1008.76 1009.23 1009.90 1010.71 1011.56 1012.36 1013.01 1013.84 1014.42 1015.01 1015.42 1015.87 1015.91 1016.31 1016.41 1016.62 1017.47 1017.61 1017.33 1017.42 1017.49 1017.90 1017.89 1018.08 1018.34 1018.44 1018.42 1018.56 1018.71 1018.85 1019.14 1018.75 1018.79
1004.38 1004.44 1004.76 1004.78 1004.60 1004.57 1004.27 1004.94 1003.26 1004.34 1005.40 1005.66 1006.19 1006.67 1007.06 1007.54 1008.39 1009.05 1009.88 1010.55 1011.04 1011.85 1012.57 1013.35 1014.08 1014.70 1015.22 1015.70 1016.15 1016.35 1016.22 1016.52 1016.97 1017.02 1016.70 1016.82 1017.00 1017.39 1017.83 1017.80 1017.96 1018.11 1018.08 1018.09 1018.37 1018.64 1018.79 1018.94 1018.68
1003.80 1003.99 1004.12 1004.29 1004.35 1004.05 1004.76 1004.99 1003.54 1004.62 1005.35 1005.66 1005.51 1006.10 1006.83 1007.54 1008.11 1008.68 1009.42 1010.08 1010.69 1011.47 1012.06 1012.69 1013.40 1013.97 1014.61 1015.30 1015.66 1015.98 1016.21 1016.42 1016.56 1016.54 1015.99 1016.24 1016.40 1016.78 1016.99 1017.54 1017.70 1017.81 1018.11 1018.05 1018.02 1018.19 1018.27 1018.57 1018.59
1003.09 1003.37 1002.73 1003.37 1003.47 1003.64 1005.18 1004.43 1003.98 1004.97 1005.48 1005.67 1005.51 1006.06 1006.67 1007.33 1007.77 1008.32 1008.88 1009.51 1010.16 1011.01 1011.79 1012.32 1012.97 1013.47 1014.24 1014.93 1015.31 1015.58 1015.96 1016.15 1016.06 1015.92 1016.06 1016.17 1016.01 1016.30 1016.70 1017.12 1017.24 1017.37 1017.35 1017.62 1017.87 1017.97 1018.07 1018.09 1018.34
1003.11 1003.36 1003.69 1003.72 1004.29 1004.24 1003.51 1004.35 1004.87 1005.10 1005.21 1005.48 1005.80 1006.18 1006.64 1007.01 1007.50 1007.97 1008.54 1009.16 1009.54 1010.18 1011.34 1011.90 1012.45 1013.19 1014.44 1014.83 1015.20 1015.68 1016.04 1016.35 1015.92 1015.96 1016.14 1015.98 1016.05 1016.04 1016.43 1016.65 1016.73 1016.85 1016.83 1017.00 1017.38 1017.46 1017.35 1017.57 1017.92
1002.92 1003.36 1003.93 1004.02 1003.69 1003.89 1003.63 1004.13 1003.40 1004.84 1005.05 1005.32 1005.65 1006.03 1006.41 1006.75 1007.12 1007.49 1008.07 1008.67 1009.37 1010.18 1010.77 1011.88 1012.59 1013.35 1014.00 1014.57 1015.13 1015.78 1016.73 1016.92 1016.71 1016.28 1015.93 1015.73 1015.67 1015.87 1016.01 1016.15 1016.30 1016.43 1016.52 1016.44 1016.84 1016.97 1017.05 1017.47 1017.36
1003.72 1003.50 1003.94 1004.04 1004.52 1003.75 1003.79 1003.69 1004.68 1005.28 1005.57 1005.53 1005.46 1005.66 1006.00 1006.38 1006.60 1007.00 1007.58 1008.43 1009.11 1010.01 1010.71 1011.96 1012.70 1013.36 1014.04 1014.68 1015.89 1016.96 1017.20 1017.15 1017.01 1017.10 1016.17 1015.54 1015.23 1015.38 1015.57 1015.66 1015.72 1015.87 1016.15 1016.01 1016.22 1016.42 1016.33 1016.27 1016.63
1002.75 1002.68 1003.71 1003.60 1004.51 1004.66 1004.44 1004.39 1005.50 1005.97 1006.01 1006.31 1006.32 1006.35 1006.51 1007.20 1007.16 1007.00 1007.03 1007.59 1008.46 1009.48 1010.28 1011.67 1012.58 1013.93 1014.84 1015.45 1015.91 1015.09 1016.78 1016.50 1017.35 1016.54 1016.22 1015.38 1014.78 1014.77 1015.07 1015.20 1015.24 1015.26 1015.39 1015.53 1015.60 1016.09 1016.10 1015.99 1015.69
Wind_Speed
10 9 5 7 8 5 6 7 4 3 6 6 6 6 10 9 10 7 12 6 16 16 15 15 13 12 13 14 13 13 13 12 11 10 10 9 9 10 10 10 9 8 8 7 6 6 5 2 2
5 6 6 5 8 6 7 6 5 11 9 8 7 5 5 12 9 14 11 13 16 15 13 14 12 12 13 13 12 13 13 12 11 10 9 9 9 10 10 10 9 9 8 7 7 6 6 8 5
8 7 7 5 2 9 9 5 8 9 5 1 4 6 5 7 11 8 15 17 16 14 12 15 12 11 13 12 12 11 12 12 11 10 9 9 10 10 10 10 10 10 8 8 7 7 7 9 13
6 6 6 8 7 9 11 5 7 8 5 2 7 10 10 13 4 8 17 15 15 14 14 15 12 10 13 13 13 13 12 12 11 10 9 9 10 10 10 10 9 8 7 7 7 7 10 12 12
7 5 6 4 5 7 5 3 3 4 3 7 2 8 13 11 12 14 15 14 14 14 15 15 12 13 14 12 13 13 12 12 11 10 9 9 10 10 9 8 6 6 7 7 8 8 9 12 13
7 6 7 4 6 4 6 4 6 3 4 7 11 12 9 5 14 11 14 14 13 13 14 15 11 15 13 12 12 12 12 11 11 10 10 10 10 9 8 7 7 6 7 11 11 11 11 12 13
10 8 3 4 12 11 9 5 5 5 5 10 7 6 7 10 14 13 13 13 13 12 13 13 14 13 12 11 11 11 11 11 10 10 9 10 10 9 7 8 9 7 7 12 12 12 12 11 13
6 6 9 3 7 14 7 6 4 1 9 7 0 7 12 15 14 13 12 12 12 11 11 13 12 13 12 12 10 10 11 11 10 9 9 9 9 8 5 8 10 7 8 10 11 13 13 12 12
4 7 6 9 7 10 10 8 4 5 10 6 5 8 18 18 15 14 13 12 10 9 10 9 10 10 9 11 11 10 9 9 9 9 7 9 5 6 8 10 8 7 9 9 9 10 11 12 12
9 3 6 3 4 4 8 4 10 7 9 11 11 11 19 17 15 16 14 13 13 12 11 10 8 9 8 6 10 8 9 8 6 6 6 4 2 5 7 7 6 7 10 9 8 6 6 14 4
3 7 4 6 1 2 6 5 4 4 7 8 13 19 20 18 13 13 12 11 12 11 9 9 9 6 8 7 6 5 5 5 5 5 5 3 2 2 2 4 5 6 10 7 9 9 1 5 4
7 3 2 6 4 3 7 3 5 2 8 6 14 21 20 18 15 12 11 9 10 10 10 9 10 9 7 5 6 5 4 4 4 5 4 3 4 3 1 1 1 3 2 4 3 5 2 4 3
3 4 3 4 3 2 5 5 3 10 7 11 16 19 18 16 14 11 11 10 9 11 11 11 10 9 7 5 5 4 3 5 3 4 4 2 2 1 3 1 3 2 3 3 5 4 3 4 4
2 2 4 3 5 5 5 4 5 8 9 15 16 17 15 14 14 12 11 11 11 10 11 11 12 10 10 8 5 5 4 4 5 3 1 2 3 2 1 3 3 4 4 4 6 4 5 3 5
3 9 7 6 7 5 3 9 6 6 7 13 14 13 14 12 12 11 10 10 12 11 11 12 12 11 10 9 8 6 6 5 5 4 4 2 4 3 3 3 3 2 4 4 4 4 3 3 3
9 8 12 9 7 5 6 10 14 4 10 13 13 11 11 12 11 10 10 10 10 11 12 12 11 12 12 11 9 7 6 5 5 4 3 4 4 5 5 3 2 5 5 5 5 6 5 4 4
9 11 12 10 7 4 9 7 7 5 6 11 12 11 11 10 9 7 8 8 10 12 11 12 12 14 13 9 6 3 4 4 5 3 4 5 5 4 4 2 4 5 5 5 4 5 5 5 5
12 12 14 13 9 9 9 4 5 6 6 10 11 11 11 11 9 7 8 8 8 10 12 12 12 12 11 8 7 6 6 4 5 5 4 6 5 3 3 4 3 6 5 4 7 4 5 5 6
6 14 16 7 4 7 3 2 5 4 6 8 10 11 11 9 10 8 6 7 9 9 12 14 15 13 11 9 9 6 5 5 5 4 5 5 5 4 3 7 5 6 4 6 5 5 6 6 5
8 12 10 7 4 8 6 6 3 4 4 5 6 6 5 7 9 11 9 6 8 9 10 12 14 14 11 9 6 4 4 4 5 5 4 5 4 5 6 7 4 4 4 5 6 6 5 7 5
11 13 14 14 9 2 7 9 9 6 6 7 8 5 3 4 6 8 10 9 7 8 9 11 12 13 12 9 7 5 4 3 5 6 7 6 7 9 10 7 6 5 6 5 6 7 8 6 7
11 8 12 13 15 9 6 2 9 9 8 8 8 7 4 3 5 6 10 9 8 9 9 10 11 11 10 10 8 8 5 3 2 3 3 4 9 9 8 8 7 7 6 4 6 6 6 7 7
6 11 12 14 11 5 11 9 8 5 10 12 11 7 4 4 3 6 6 8 8 9 9 9 10 11 9 10 8 7 6 4 3 4 5 7 7 9 9 9 8 8 8 7 6 5 7 7 9
14 14 8 8 6 10 5 8 5 7 1 3 12 8 6 7 6 6 6 7 8 9 10 11 12 11 10 9 8 8 5 5 5 7 5 5 5 6 8 9 8 9 9 8 8 7 8 8 7
11 15 8 9 8 7 7 7 9 3 2 5 10 11 10 9 9 8 8 8 7 9 11 11 13 13 13 11 10 9 8 8 8 9 5 4 5 5 5 7 7 8 9 9 8 8 8 9 9
16 15 5 8 8 5 8 7 4 3 1 6 7 13 11 10 10 9 9 8 9 10 11 12 12 12 11 10 9 8 8 7 7 7 6 5 4 4 4 7 7 9 9 9 9 8 9 9 9
10 11 5 5 2 9 5 6 5 2 6 12 12 10 11 11 11 11 10 9 9 10 11 11 12 11 8 9 7 7 7 9 8 7 6 7 6 6 7 8 8 8 9 10 10 9 10 9 9
6 8 7 8 6 9 6 5 2 9 7 11 12 13 12 11 12 11 9 8 7 6 8 7 7 7 8 7 5 1 6 9 11 10 10 9 7 8 8 8 9 8 9 10 10 11 10 11 9
7 8 2 4 5 6 5 5 9 3 1 3 10 12 10 10 12 10 10 10 9 8 7 7 7 8 6 9 14 10 7 8 18 17 11 10 8 8 10 11 10 10 11 10 8 10 12 12 12
5 9 9 8 11 5 7 5 9 4 3 2 2 3 6 8 10 10 9 8 7 7 8 9 7 11 11 11 9 10 3 5 13 14 16 11 10 9 10 11 11 11 12 11 11 11 10 10 12
Wind_Direction
185 213 255 243 231 226 115 83 14 25 68 50 58 0 43 20 2 37 107 172 135 127 130 147 138 141 142 126 115 109 107 105 100 99 94 85 76 72 67 63 60 57 56 56 58 50 43 45 55
205 216 233 270 254 155 89 34 345 60 99 107 104 126 58 78 66 113 141 145 138 130 140 134 139 145 129 122 113 111 113 110 106 93 79 73 72 67 59 58 59 62 58 60 60 55 41 94 110
231 240 264 274 295 61 89 63 79 113 104 81 110 36 26 61 110 118 122 137 132 131 134 116 142 144 126 115 110 110 108 103 97 90 85 81 75 68 65 63 65 64 64 61 55 55 52 83 78
219 203 215 255 96 94 68 53 113 140 95 70 78 79 85 67 102 104 138 137 134 138 135 128 145 139 118 114 119 117 112 106 99 94 89 83 78 76 73 69 61 58 56 55 59 59 89 85 82
222 252 215 199 118 87 109 80 153 93 99 84 309 94 101 69 93 120 143 146 144 137 123 139 157 136 123 128 124 119 114 113 108 105 103 97 91 87 80 69 57 48 53 67 80 76 85 79 82
220 277 220 175 107 103 145 152 133 85 75 92 109 113 88 123 119 153 148 146 139 141 137 137 149 130 131 135 131 125 122 116 111 108 104 103 102 98 88 67 40 34 56 95 97 81 75 78 80
272 237 76 138 112 138 116 169 173 86 123 77 135 84 93 159 137 163 148 141 144 140 139 146 149 135 132 137 132 125 117 113 106 105 106 113 114 104 86 59 42 49 85 100 98 84 81 73 75
274 270 172 141 149 111 125 140 113 341 84 111 111 124 148 130 149 147 147 149 147 148 150 153 153 160 164 151 136 132 129 126 116 112 112 119 119 124 150 142 51 74 99 100 100 96 87 81 74
260 239 156 120 183 126 142 156 120 103 126 100 85 85 122 140 148 152 151 150 154 157 154 154 161 150 161 135 134 145 131 128 135 137 135 189 145 153 126 59 59 89 119 107 100 103 111 119 102
256 171 77 40 69 124 129 224 129 178 135 124 110 118 131 144 158 157 161 162 168 170 165 162 159 162 151 150 152 155 142 164 171 161 172 193 88 41 51 82 88 94 121 100 100 118 174 213 103
181 88 84 79 77 297 133 175 124 199 142 137 145 147 150 155 165 161 155 162 168 171 159 170 160 177 171 163 161 166 163 160 163 174 205 84 177 165 207 153 161 147 183 152 172 186 175 34 37
201 79 49 74 104 164 181 89 155 339 79 108 139 157 155 164 165 170 161 162 165 170 168 174 165 164 210 160 194 162 176 175 185 167 187 185 214 178 281 345 126 209 149 115 150 38 69 78 53
183 111 118 90 161 171 144 187 34 117 90 130 135 156 164 167 168 174 168 170 182 178 175 180 178 166 217 204 175 197 183 191 170 185 163 250 259 251 235 154 240 195 168 156 103 192 129 136 118
138 160 127 140 144 150 217 134 231 94 116 132 147 159 166 173 176 175 188 183 190 185 182 183 190 177 186 200 195 178 198 161 209 187 174 200 257 209 247 203 199 188 196 159 179 97 217 142 123
164 179 163 184 171 140 236 185 152 103 139 135 147 156 160 179 185 197 195 202 192 195 183 193 192 180 192 199 191 201 181 194 196 189 190 217 247 199 281 242 225 200 195 182 166 219 212 179 159
188 211 178 150 176 136 239 115 101 124 168 144 151 151 169 179 191 198 210 214 206 214 195 193 190 181 194 194 192 196 174 209 207 189 190 191 215 231 232 249 207 202 199 195 162 238 208 203 190
198 197 203 161 203 155 240 90 102 139 171 151 153 164 169 165 179 184 214 214 212 202 205 195 193 198 192 187 190 213 212 228 248 203 205 184 220 227 272 245 225 200 212 204 171 218 237 183 223
184 215 179 160 167 213 192 99 120 134 170 172 169 182 181 180 190 181 194 205 214 209 197 198 194 197 184 169 180 197 210 207 234 237 206 202 217 204 199 230 229 229 227 191 215 247 195 240 217
181 189 175 115 149 225 217 117 143 149 184 193 199 194 187 197 178 197 204 197 215 205 196 192 193 187 178 177 186 196 213 211 216 220 211 213 240 121 205 246 204 230 234 245 198 218 215 219 235
202 197 172 134 157 247 181 184 182 225 224 232 226 211 193 189 195 201 202 213 202 194 194 192 194 185 186 182 189 196 222 209 207 196 141 201 154 196 214 252 235 220 209 211 224 222 218 227 212
210 207 179 178 153 171 190 207 203 196 233 238 229 203 188 218 215 192 189 184 187 188 189 191 193 190 194 187 172 159 155 174 191 190 217 201 203 208 219 218 250 196 253 207 207 202 221 226 193
183 206 188 152 188 188 217 246 181 195 225 233 226 199 192 175 155 146 162 170 177 187 181 182 186 192 192 189 180 185 211 210 172 225 240 186 209 216 213 218 219 219 232 226 208 218 245 233 246
95 176 174 178 210 196 174 260 108 159 236 228 226 198 187 143 125 133 160 160 167 170 174 173 177 182 184 185 195 189 233 168 159 211 233 230 198 219 218 216 222 221 224 205 244 213 222 221 256
131 129 143 194 183 219 176 253 211 140 159 204 205 195 179 161 160 157 141 153 156 161 167 168 171 175 178 187 194 211 214 217 216 234 253 244 222 205 228 233 230 225 225 218 218 227 225 242 248
165 163 164 198 201 245 136 215 296 86 228 242 178 176 173 174 189 177 175 186 175 174 175 172 174 176 183 189 198 208 220 225 225 248 241 278 246 231 221 226 239 231 230 239 228 214 231 220 231
196 195 230 211 218 200 144 235 125 23 330 189 174 158 166 179 189 193 197 194 185 187 187 182 181 189 185 193 206 213 223 230 233 230 276 248 252 263 235 226 236 228 234 228 232 236 233 225 225
159 214 5 304 251 284 181 149 175 181 153 156 165 175 189 197 205 206 203 205 207 187 190 190 186 186 172 198 209 217 233 249 269 258 234 236 242 255 229 239 233 230 230 231 236 237 234 236 226
214 145 185 218 240 249 160 265 113 153 164 173 183 198 204 215 220 219 222 217 206 208 181 196 181 171 168 191 196 327 345 312 284 263 245 250 253 245 254 242 236 237 234 228 228 245 236 230 232
164 186 237 3 333 295 232 168 65 95 46 238 213 216 228 237 241 233 222 211 219 186 178 155 158 161 116 69 67 49 46 29 328 291 266 252 254 249 245 245 231 231 231 227 237 245 257 226 235
241 205 188 232 162 237 331 77 102 74 40 20 13 335 352 334 309 285 259 244 210 195 158 142 136 106 120 114 115 99 18 348 275 278 270 269 258 253 250 253 249 245 233 234 226 228 232 253 243